Location: Abundant Grace Fellowship
(35.0349°N, 90.0924°W)
Time: 22:03:48
(UTC+00:00)

SAR-Lupe-4 - Pass Details

Date: 18 January 2026
Orbit: 480 x 483 km, 98.1° (Epoch: 10 January)

Event Time Altitude Azimuth Distance (km) Brightness Sun altitude
Rises 00:11:14 0° 169° (SSE) 2,526 7.3 -11.8°
Reaches altitude 10° 00:13:16 10° 170° (S) 1,652 6.3 -12.2°
Maximum altitude 00:16:49 80° 258° (WSW) 494 3.6 -12.9°
Drops below altitude 10° 00:20:24 10° 345° (NNW) 1,666 6.3 -13.6°
Sets 00:22:28 0° 347° (NNW) 2,550 7.2 -14.0°
